Location: Newark
(38.0892°N, 27.7378°E)
Time: 12:16:43
(UTC+00:00)

N. Korean satellite - Pass Details

Date: 13 December 2019
Orbit: 454 x 508 km, 97.2° (Epoch: 17 January)

Event Time Altitude Azimuth Distance (km) Brightness Sun altitude
Rises 03:45:04 0° 16° (NNE) 2,524 10.2 -17.4°
Reaches altitude 10° 03:47:10 10° 20° (NNE) 1,633 9.3 -17.0°
Maximum altitude 03:50:37 56° 99° (E) 558 7.2 -16.3°
Drops below altitude 10° 03:53:59 10° 179° (S) 1,597 9.4 -15.7°
Sets 03:56:01 0° 184° (S) 2,460 10.3 -15.3°
